World > North America > United States > Texas > Lilac

Hourly Lilac, TX Regional Weather

Feedback E-mail the Weather

Quick WX

Lilac, TX Weather Maps

°F °C°F °C
Lilac Weather Map
UTC Time: 8/17/2022, 18:56
Your Time:

Lilac, TX Regional Weather

Expires:202208171900;;208971
ASUS44 KFWD 171815
RWRTX 
NORTH TEXAS HOURLY WEATHER ROUNDUP
NATIONAL WEATHER SERVICE FORT WORTH TX
100 PM CDT WED AUG 17 2022

NOTE: "FAIR" INDICATES FEW OR NO CLOUDS BELOW 12,000 FEET WITH NO
SIGNIFICANT WEATHER AND/OR OBSTRUCTIONS TO VISIBILITY.


TXZ143>147-156>162-174-175-171900-
CENTRAL TEXAS
  
CITY           SKY/WX    TMP DP  RH WIND       PRES   REMARKS
WACO           FAIR      99  68  36 SW9       29.97F HX 104           
6HR MIN TEMP:  81; 6HR MAX TEMP: 101;                                

WACO-TSTC      MOSUNNY   99  63  30 CALM      29.97F HX 100           
WACO-MCGREGOR  FAIR      98  68  37 NW6       29.98F HX 103           
6HR MIN TEMP:  80; 6HR MAX TEMP:  98;                                

HILLSBORO      FAIR      99  67  34 W8        29.96F HX 103           
6HR MIN TEMP:  80; 6HR MAX TEMP:  99;                                

MEXIA          FAIR      98  67  36 NW6       29.97F HX 103           
6HR MIN TEMP:  77; 6HR MAX TEMP: 100;                                

HEARNE         FAIR      97  69  39 CALM      29.98F HX 103           
6HR MIN TEMP:  78; 6HR MAX TEMP:  97;                                

CAMERON        FAIR      98  66  35 SW7       29.98F HX 101           
6HR MIN TEMP:  78; 6HR MAX TEMP:  98;                                

TEMPLE         FAIR      98  66  34 VRB3      29.99F HX 101           
6HR MIN TEMP:  77; 6HR MAX TEMP:  99;                                

KILLEEN        FAIR      95  64  35 S5        29.97F HX  97           
6HR MIN TEMP:  78; 6HR MAX TEMP:  96;                                

KILLEEN-SKYLRK FAIR      94  66  39 NE3       30.00F HX  97           
6HR MIN TEMP:  79; 6HR MAX TEMP:  96;                                

FORT HOOD      FAIR      96  63  34 CALM      30.00F HX  97           
6HR MIN TEMP:  79; 6HR MAX TEMP:  97;                                

GATESVILLE     FAIR      95  66  38 MISG      30.01F HX  98           
HAMILTON       FAIR      95  65  36 N6        30.04F HX  97           
6HR MIN TEMP:  76; 6HR MAX TEMP:  95;                                

LAMPASAS       FAIR      93  64  37 S3          N/A  HX  94           
6HR MIN TEMP:  77; 6HR MAX TEMP:  95;                                

$$


SKY/WX - Weather  TMP - Temperature  DP - Dew Point  RH - Humidity
WIND - Wind Direction/Speed PRES - Barometric Pressure VSB - Visibility
WCI - Wind Chill Index E13G22 Wind - East Wind 13 mph/Gusts of 22 mph

Trending Headlines

Lilac Radar Loop



Lilac Quick Facts


National Two Day Weather Forecast


E-mail the Lilac Weather Forecast

Voice your opinion or tell us about page issues...